Voltar ao catálogo

STARLINK-37866

AtivoComunicaçõesSSO
NORAD 69430·PAYLOAD·🇺🇸 United States

Lançado Jun 7, 2026 de Vandenberg Space Force Base

Loading…

Próximas Passagens (próximas 24 horas)

TLE

AtualizadoSource: CelesTrak SupGP

Época: Sep 15, 2026, 03:03 UTC

1 69430C 26126L   26258.12756944  .00007864  00000+0  24405-3 0  2580
2 69430  97.2845 119.4835 0001901  94.5784 275.4702 15.33440453    18

Acompanhe STARLINK-37866 em tempo real com AllMySat

Download on the App Store